Weather in Fresno

United States     36°44′36″N   119°47′17″W
temp.,
°C
wind,
m/s
gust,
m/s
humid.,
%
clouds,
%
prec.,
mm/h
press.,
hPa
HPBL,
m
7 may, fri
fri723:00+20nw814345 0.0 1014473
02:00+17nw714505 0.0 1014456
05:00+15nw58510 0.0 1015357
08:00+16nw58450 0.0 1016470
11:00+22nw34230 0.0 1016937
14:00+27nw44130 0.0 10131544
17:00+29nw66110 0.0 10111897
20:00+25nw58200 0.0 10111181
8 may, sat
sat823:00+20nw613330 0.0 1012511
02:00+17nw510400 0.0 1012347
05:00+15nw47430 0.0 1014312
08:00+16nw33370 0.0 1015377
11:00+23nw11240 0.0 1015851
14:00+27nnw23160 0.0 10131333
17:00+30n3595 0.0 10102182
20:00+27nnw24120 0.0 1010143
9 may, sun
sun923:00+23wnw36150 0.0 1010172
02:00+20nw36220 0.0 1010189
05:00+18nw36285 0.0 1010226
08:00+19nw46315 0.0 1011390
11:00+24nw442136 0.0 1010967
14:00+29nw451485 0.0 10081974
17:00+31nw55125 0.0 10052684
20:00+28nw48135 0.0 1005660
10 may, mon
mon1023:00+22nw613250 0.0 1006482
02:00+20nw511290 0.0 1006375
05:00+17nw47360 0.0 1008260
08:00+18nw33340 0.0 1009350
11:00+24wnw22220 0.0 1010890
14:00+30nnw35150 0.0 10081909
17:00+32nw5760 0.0 10062734
20:00+29nw4970 0.0 1006552
11 may, tue
tue1123:00+23nw410140 0.0 1008306
02:00+21nw37190 0.0 1009256
05:00+19nnw12220 0.0 101087
08:00+21se12200 0.0 1012290
11:00+27wsw11130 0.0 1012796
14:00+32nw3380 0.0 10111637
17:00+33nnw3460 0.0 10092263
20:00+30nne1180 0.0 100917